Retour au catalogue

CZ-6A DEB

ActifPO
NORAD 61475·DEBRIS·🇨🇳 China

Lancé Aug 6, 2024 depuis Taiyuan Satellite Launch Center

Loading…

Prochains Passages (prochaines 24 heures)

TLE

FraisSource: Space-Track

Époque: Sep 13, 2026, 08:37 UTC

1 61475U 24140AAH 26256.35932389  .00000249  00000-0  25639-3 0  9990
2 61475  88.3864 227.2023 0433102 200.3277 158.0161 13.38872768 98882

Suivez CZ-6A DEB en temps réel avec AllMySat

Download on the App Store